Location: Unspecified
(0.0000°N, 0.0000°E)
Time: 20:56:20
(UTC+00:00)

Altair - Visible Passes

Search period start: 16 September 2019 00:00
Search period end: 26 September 2019 00:00
Orbit: 1501 x 1683 km, 47.2° (Epoch: 15 September)

Date Brightness Start Highest point End Pass type
(mag) Time Alt. Az. Time Alt. Az. Time Alt. Az.
16 Sep 9.4 03:22:44 10° N 03:29:20 21° NE 03:35:46 10° E visible
16 Sep 7.5 05:24:39 10° NW 05:34:06 79° SW 05:43:19 10° SE visible
16 Sep 9.0 18:14:17 10° WSW 18:23:19 40° NW 18:32:33 10° NNE visible
17 Sep 9.4 02:58:06 10° N 03:04:04 18° NE 03:09:55 10° E visible
17 Sep 7.5 04:59:27 10° NW 05:08:58 87° SW 05:18:13 10° SE visible
18 Sep 9.5 02:33:52 11° NNE 02:38:48 16° NE 02:43:55 10° ENE visible
18 Sep 7.5 04:34:16 10° NW 04:43:49 84° NE 04:53:04 10° SE visible
19 Sep 9.5 02:11:53 13° NNE 02:13:31 13° NE 02:17:41 10° ENE visible
19 Sep 7.6 04:10:02 14° NNW 04:18:40 76° NE 04:27:54 10° SE visible
20 Sep 9.7 01:49:43 11° NE 01:49:43 11° NE 01:51:02 10° ENE visible
20 Sep 7.6 03:47:52 28° NNW 03:53:31 68° NE 04:02:43 10° SE visible
20 Sep 10.1 18:46:09 10° NW 18:48:02 11° NW 18:49:56 10° NNW visible
21 Sep 7.8 03:25:32 45° N 03:28:22 61° NE 03:37:29 10° SE visible
21 Sep 8.3 05:25:15 10° WNW 05:32:52 28° SW 05:40:23 10° S visible
21 Sep 9.9 18:18:54 10° WNW 18:22:42 13° NW 18:26:31 10° NNW visible
22 Sep 7.9 03:03:01 54° NE 03:03:12 54° NE 03:12:12 10° SE visible
22 Sep 8.2 05:01:09 15° WNW 05:07:41 31° SW 05:15:35 10° S visible
23 Sep 8.3 02:40:21 41° E 02:40:21 41° E 02:46:54 10° ESE visible
23 Sep 8.0 04:38:27 25° W 04:42:31 35° SW 04:50:45 10° SSE visible
24 Sep 8.9 02:17:31 27° E 02:17:31 27° E 02:21:33 10° ESE visible
24 Sep 7.8 04:15:36 37° WSW 04:17:21 40° SW 04:25:52 10° SSE visible
25 Sep 9.5 01:54:32 16° ESE 01:54:32 16° ESE 01:56:09 10° ESE visible
25 Sep 7.7 03:52:37 45° SW 03:52:37 45° SW 04:00:57 10° SSE visible
